Satellite-Ground Cal/Val Region Overpasses Predictions

Prediction of Satellite NPP Overpassing Cal/Val Region: PacNW

Region Location: (Latitude: 10.00, Longitude: 139.50) to (Latitude: 22.70, Longitude: 165.60).

Table of predicted overpasses for the next 14.0 days since TLE Epoch: 4/16/2018
Interval Starting Time Starting Location Ending Time Ending Location
1 04/16/2018 14:39:18 ( 22.66, 165.06) 04/16/2018 14:42:53 ( 10.04, 162.06)
2 04/16/2018 16:20:48 ( 22.66, 139.68) 04/16/2018 16:21:00 ( 21.95, 139.51)
3 04/17/2018 03:29:53 ( 10.02, 147.21) 04/17/2018 03:33:29 ( 22.70, 144.19)
4 04/17/2018 16:01:47 ( 22.65, 144.44) 04/17/2018 16:05:22 ( 10.03, 141.44)
5 04/18/2018 03:10:52 ( 10.03, 151.96) 04/18/2018 03:14:27 ( 22.65, 148.96)
6 04/18/2018 15:42:45 ( 22.70, 149.21) 04/18/2018 15:46:21 ( 10.02, 146.19)
7 04/19/2018 02:51:50 ( 10.04, 156.72) 04/19/2018 02:55:25 ( 22.66, 153.72)
8 04/19/2018 15:23:43 ( 22.69, 153.96) 04/19/2018 15:27:19 ( 10.01, 150.95)
9 04/20/2018 02:32:49 ( 10.05, 161.47) 04/20/2018 02:36:24 ( 22.67, 158.47)
10 04/20/2018 15:04:42 ( 22.68, 158.72) 04/20/2018 15:08:17 ( 10.06, 155.71)
11 04/21/2018 02:14:34 ( 12.82, 165.59) 04/21/2018 02:17:22 ( 22.68, 163.22)
12 04/21/2018 03:55:16 ( 10.00, 140.87) 04/21/2018 03:56:56 ( 15.88, 139.50)
13 04/21/2018 14:45:40 ( 22.67, 163.47) 04/21/2018 14:49:15 ( 10.05, 160.47)
14 04/22/2018 03:36:15 ( 10.02, 145.62) 04/22/2018 03:39:51 ( 22.70, 142.60)
15 04/22/2018 14:29:47 ( 11.62, 165.59) 04/22/2018 14:30:14 ( 10.04, 165.22)
16 04/22/2018 16:08:09 ( 22.65, 142.85) 04/22/2018 16:11:44 ( 10.03, 139.85)
17 04/23/2018 03:17:13 ( 10.03, 150.38) 04/23/2018 03:20:48 ( 22.65, 147.37)
18 04/23/2018 15:49:06 ( 22.70, 147.62) 04/23/2018 15:52:42 ( 10.02, 144.60)
19 04/24/2018 02:58:12 ( 10.04, 155.13) 04/24/2018 03:01:47 ( 22.66, 152.13)
20 04/24/2018 15:30:05 ( 22.69, 152.37) 04/24/2018 15:33:41 ( 10.01, 149.36)
21 04/25/2018 02:39:10 ( 10.05, 159.89) 04/25/2018 02:42:45 ( 22.68, 156.88)
22 04/25/2018 15:11:03 ( 22.68, 157.13) 04/25/2018 15:14:38 ( 10.06, 154.12)
23 04/26/2018 02:20:08 ( 10.01, 164.65) 04/26/2018 02:23:44 ( 22.69, 161.64)
24 04/26/2018 14:52:02 ( 22.66, 161.88) 04/26/2018 14:55:37 ( 10.05, 158.88)
25 04/27/2018 03:42:37 ( 10.03, 144.03) 04/27/2018 03:46:12 ( 22.65, 141.03)
26 04/27/2018 14:34:12 ( 18.43, 165.60) 04/27/2018 14:36:35 ( 10.03, 163.63)
27 04/27/2018 16:14:30 ( 22.65, 141.26) 04/27/2018 16:16:33 ( 15.43, 139.51)
28 04/28/2018 03:23:35 ( 10.04, 148.79) 04/28/2018 03:27:10 ( 22.66, 145.78)
29 04/28/2018 15:55:28 ( 22.69, 146.03) 04/28/2018 15:59:04 ( 10.02, 143.01)
30 04/29/2018 03:04:34 ( 10.05, 153.54) 04/29/2018 03:08:09 ( 22.68, 150.54)
31 04/29/2018 15:36:26 ( 22.68, 150.78) 04/29/2018 15:40:02 ( 10.00, 147.77)


NCC Satellite Cal/Val Overpasses Prediction Service
